sat.trackr.live / text

‹ back to catalog

QPS-SAR-15 (SUKUNAMI-I)

NORAD 67228 · 2025-307A

PAYLOAD ACTIVE UNKNOWN

§ Identity

Operator
Country
JPN
Launch date
2025-12-21
Launch site
RLLB
Launch vehicle
Mass (kg)
RCS (m²)

External: N2YO · Heavens-Above · Gunter

§ Orbital elements

Epoch: 2026-09-20T21:36:28.486080Z

Period
96.02 min
Inclination
42.0060°
Eccentricity
0.0012091
Mean motion
14.99632150 rev/d
Perigee alt
559.6 km
Apogee alt
576.4 km
Semi-major
6,946.2 km
B*
2.2885e-4
RAAN
62.0158°
Arg perigee
261.1848°
Mean anomaly
98.7608°
Rev number
4,105

§ Raw data

QPS-SAR-15 (SUKUNAMI-I)1 67228U 25307A   26263.90032970  .00002686  00000+0  22885-3 0  99902 67228  42.0060  62.0158 0012091 261.1848  98.7608 14.99632150 41052

JSON: /api/v1/satellites/67228 · /tle

For live sub-satellite position, see the globe view (requires WebGL).

§ Visibility from observer

Set your observer location to see the next 7 days of passes ≥ 10°. The values pass through the URL so the page stays shareable.

No JS? Fill the form by hand. The geolocation button needs JavaScript.